Tracking 32136 objects as of 11-Nov-2025
HD Live streaming from Space Station
objects crossing your sky now

TIROS 6

Track TIROS 6 now!
10-day predictions
TIROS 6 is classified as:


NORAD ID: 397
Int'l Code: 1962-047A
Perigee: 585.3 km
Apogee: 592.5 km
Inclination: 58.3 °
Period: 96.3 minutes
Semi major axis: 6959 km
RCS: 0.807 m2 (medium)
Launch date: September 18, 1962
Source: United States (US)
Launch site: AIR FORCE EASTERN TEST RANGE (AFETR)
Your satellite tracking list
Your tracking list is empty




NASA's NSSDC Master Catalog

Two Line Element Set (TLE):
1 00397U 62047A   25315.27945028  .00002855  00000-0  27841-3 0  9996
2 00397  58.3048  25.7354 0005209 167.6802 192.4374 14.95202068379726
Source of the keplerian elements: AFSPC